Tracking 23893 objects as of 29-Nov-2021
HD Live streaming from Space Station
objects crossing your sky now

THORAD AGENA D DEB

Track THORAD AGENA D DEB now!
10-day predictions


NORAD ID: 4187
Int'l Code: 1969-082BA
Perigee: 662.0 km
Apogee: 698.3 km
Inclination: 70.0 °
Period: 98.2 minutes
Semi major axis: 7051 km
RCS: 0.0694 m2 (small)
Launch date: September 30, 1969
Source: United States (US)
Launch site: AIR FORCE WESTERN TEST RANGE (AFWTR)

Note: This is SATELLITE DEBRIS
aabbcc
Your satellite tracking list
Your tracking list is empty




NASA's NSSDC Master Catalog

Two Line Element Set (TLE):
1 04187U 69082BA  21332.54036431  .00000677  00000-0  13509-3 0  9993
2 04187  69.9659 250.2450 0025678  33.4114 326.8641 14.66268410743167
Source of the keplerian elements: AFSPC